Time,TemperatureF,DewpointF,PressureIn,WindDirection,WindDirectionDegrees,WindSpeedMPH,WindSpeedGustMPH,Humidity,HourlyPrecipIn,Conditions,Clouds,dailyrainin,SoftwareType,DateUTC
2013-09-07 00:22:00,52.0,-99.9,-100.00,North,-999,-999.0,-999.0,-999,0.00,,,0.24,,2013-09-07 06:22:00,
2013-09-07 00:33:00,52.0,-99.9,-100.00,North,-999,-999.0,-999.0,-999,0.00,,,0.24,,2013-09-07 06:33:00,
2013-09-07 00:43:00,52.0,-99.9,-100.00,North,-999,-999.0,-999.0,-999,0.00,,,0.24,,2013-09-07 06:43:00,
2013-09-07 01:22:00,50.0,-99.9,-100.00,North,-999,-999.0,-999.0,-999,0.02,,,0.25,,2013-09-07 07:22:00,
2013-09-07 01:33:00,50.0,-99.9,-100.00,North,-999,-999.0,-999.0,-999,0.02,,,0.25,,2013-09-07 07:33:00,
2013-09-07 01:43:00,50.0,-99.9,-100.00,North,-999,-999.0,-999.0,-999,0.02,,,0.25,,2013-09-07 07:43:00,
2013-09-07 02:22:00,50.0,-99.9,-100.00,North,-999,-999.0,-999.0,-999,0.00,,,0.26,,2013-09-07 08:22:00,
2013-09-07 02:32:00,50.0,-99.9,-100.00,North,-999,-999.0,-999.0,-999,0.00,,,0.26,,2013-09-07 08:32:00,
2013-09-07 02:43:00,50.0,-99.9,-100.00,North,-999,-999.0,-999.0,-999,0.00,,,0.26,,2013-09-07 08:43:00,
2013-09-07 03:22:00,50.0,-99.9,-100.00,North,-999,-999.0,-999.0,-999,-99.99,,,0.23,,2013-09-07 09:22:00,
2013-09-07 03:32:00,50.0,-99.9,-100.00,North,-999,-999.0,-999.0,-999,-99.99,,,0.23,,2013-09-07 09:32:00,
2013-09-07 03:43:00,50.0,-99.9,-100.00,North,-999,-999.0,-999.0,-999,-99.99,,,0.23,,2013-09-07 09:43:00,
2013-09-07 04:21:00,50.0,-99.9,-100.00,North,-999,-999.0,-999.0,-999,0.00,,,0.23,,2013-09-07 10:21:00,
2013-09-07 04:31:00,50.0,-99.9,-100.00,North,-999,-999.0,-999.0,-999,0.00,,,0.23,,2013-09-07 10:31:00,
2013-09-07 04:41:00,50.0,-99.9,-100.00,North,-999,-999.0,-999.0,-999,0.00,,,0.23,,2013-09-07 10:41:00,
2013-09-07 05:23:00,50.0,-99.9,-100.00,North,-999,-999.0,-999.0,-999,0.00,,,-99.99,,2013-09-07 11:23:00,
2013-09-07 05:33:00,50.0,-99.9,-100.00,North,-999,-999.0,-999.0,-999,0.00,,,-99.99,,2013-09-07 11:33:00,
2013-09-07 05:43:00,50.0,-99.9,-100.00,North,-999,-999.0,-999.0,-999,0.00,,,-99.99,,2013-09-07 11:43:00,
2013-09-07 06:22:00,51.0,-99.9,-100.00,North,-999,-999.0,-999.0,-999,0.00,,,0.23,,2013-09-07 12:22:00,
2013-09-07 06:32:00,51.0,-99.9,-100.00,North,-999,-999.0,-999.0,-999,0.00,,,0.23,,2013-09-07 12:32:00,
2013-09-07 06:43:00,51.0,-99.9,-100.00,North,-999,-999.0,-999.0,-999,0.00,,,0.23,,2013-09-07 12:43:00,
2013-09-07 07:22:00,51.0,-99.9,-100.00,North,-999,-999.0,-999.0,-999,0.00,,,0.23,,2013-09-07 13:22:00,
2013-09-07 07:32:00,51.0,-99.9,-100.00,North,-999,-999.0,-999.0,-999,0.00,,,0.23,,2013-09-07 13:32:00,
2013-09-07 07:42:00,51.0,-99.9,-100.00,North,-999,-999.0,-999.0,-999,0.00,,,0.23,,2013-09-07 13:42:00,
2013-09-07 08:22:00,52.0,-99.9,-100.00,North,-999,-999.0,-999.0,-999,0.00,,,0.23,,2013-09-07 14:22:00,
2013-09-07 08:32:00,52.0,-99.9,-100.00,North,-999,-999.0,-999.0,-999,0.00,,,0.23,,2013-09-07 14:32:00,
2013-09-07 08:43:00,52.0,-99.9,-100.00,North,-999,-999.0,-999.0,-999,0.00,,,0.23,,2013-09-07 14:43:00,
2013-09-07 09:23:00,53.0,-99.9,-100.00,North,-999,-999.0,-999.0,-999,0.00,,,0.24,,2013-09-07 15:23:00,
2013-09-07 09:34:00,53.0,-99.9,-100.00,North,-999,-999.0,-999.0,-999,0.00,,,0.24,,2013-09-07 15:34:00,
2013-09-07 09:44:00,53.0,-99.9,-100.00,North,-999,-999.0,-999.0,-999,0.00,,,0.24,,2013-09-07 15:44:00,
2013-09-07 10:25:00,56.0,-99.9,-100.00,North,-999,-999.0,-999.0,-999,-99.99,,,0.25,,2013-09-07 16:25:00,
2013-09-07 10:34:00,56.0,-99.9,-100.00,North,-999,-999.0,-999.0,-999,-99.99,,,0.25,,2013-09-07 16:34:00,
2013-09-07 10:43:00,56.0,-99.9,-100.00,North,-999,-999.0,-999.0,-999,-99.99,,,0.25,,2013-09-07 16:43:00,
2013-09-07 11:24:00,60.0,-99.9,-100.00,North,-999,-999.0,-999.0,-999,-99.99,,,0.25,,2013-09-07 17:24:00,
2013-09-07 11:34:00,60.0,-99.9,-100.00,North,-999,-999.0,-999.0,-999,-99.99,,,0.25,,2013-09-07 17:34:00,
2013-09-07 11:43:00,60.0,-99.9,-100.00,North,-999,-999.0,-999.0,-999,-99.99,,,0.25,,2013-09-07 17:43:00,
2013-09-07 12:22:00,66.0,-99.9,-100.00,North,-999,-999.0,-999.0,-999,0.01,,,0.26,,2013-09-07 18:22:00,
2013-09-07 12:32:00,66.0,-99.9,-100.00,North,-999,-999.0,-999.0,-999,0.01,,,0.26,,2013-09-07 18:32:00,
2013-09-07 12:43:00,66.0,-99.9,-100.00,North,-999,-999.0,-999.0,-999,0.01,,,0.26,,2013-09-07 18:43:00,
2013-09-07 13:22:00,67.0,-99.9,-100.00,North,-999,-999.0,-999.0,-999,0.00,,,0.26,,2013-09-07 19:22:00,
2013-09-07 13:32:00,67.0,-99.9,-100.00,North,-999,-999.0,-999.0,-999,0.00,,,0.26,,2013-09-07 19:32:00,
2013-09-07 13:42:00,67.0,-99.9,-100.00,North,-999,-999.0,-999.0,-999,0.00,,,0.26,,2013-09-07 19:42:00,
2013-09-07 14:22:00,68.0,-99.9,-100.00,North,-999,-999.0,-999.0,-999,-99.99,,,0.24,,2013-09-07 20:22:00,
2013-09-07 14:32:00,68.0,-99.9,-100.00,North,-999,-999.0,-999.0,-999,-99.99,,,0.24,,2013-09-07 20:32:00,
2013-09-07 14:42:00,68.0,-99.9,-100.00,North,-999,-999.0,-999.0,-999,-99.99,,,0.24,,2013-09-07 20:42:00,
2013-09-07 15:22:00,68.0,-99.9,-100.00,North,-999,-999.0,-999.0,-999,0.01,,,0.18,,2013-09-07 21:22:00,
2013-09-07 15:34:00,68.0,-99.9,-100.00,North,-999,-999.0,-999.0,-999,0.01,,,0.18,,2013-09-07 21:34:00,
2013-09-07 15:44:00,68.0,-99.9,-100.00,North,-999,-999.0,-999.0,-999,0.01,,,0.18,,2013-09-07 21:44:00,
2013-09-07 16:24:00,67.0,-99.9,-100.00,North,-999,-999.0,-999.0,-999,-99.99,,,0.06,,2013-09-07 22:24:00,
2013-09-07 16:34:00,67.0,-99.9,-100.00,North,-999,-999.0,-999.0,-999,-99.99,,,0.06,,2013-09-07 22:34:00,
2013-09-07 16:44:00,67.0,-99.9,-100.00,North,-999,-999.0,-999.0,-999,-99.99,,,0.06,,2013-09-07 22:44:00,
2013-09-07 17:23:00,67.0,-99.9,-100.00,North,-999,-999.0,-999.0,-999,0.02,,,0.07,,2013-09-07 23:23:00,
2013-09-07 17:34:00,67.0,-99.9,-100.00,North,-999,-999.0,-999.0,-999,0.02,,,0.07,,2013-09-07 23:34:00,
2013-09-07 17:42:00,67.0,-99.9,-100.00,North,-999,-999.0,-999.0,-999,0.02,,,0.07,,2013-09-07 23:42:00,
2013-09-07 18:00:00,58.0,-99.9,-100.00,North,-999,-999.0,-999.0,-999,0.02,,,0.08,,2013-09-08 00:00:00,
2013-09-07 18:43:00,58.0,-99.9,-100.00,North,-999,-999.0,-999.0,-999,0.02,,,0.08,,2013-09-08 00:43:00,
2013-09-07 18:52:00,58.0,-99.9,-100.00,North,-999,-999.0,-999.0,-999,0.02,,,0.08,,2013-09-08 00:52:00,
2013-09-07 19:22:00,58.0,-99.9,-100.00,North,-999,-999.0,-999.0,-999,-99.99,,,0.08,,2013-09-08 01:22:00,
2013-09-07 19:32:00,58.0,-99.9,-100.00,North,-999,-999.0,-999.0,-999,-99.99,,,0.08,,2013-09-08 01:32:00,
2013-09-07 19:42:00,58.0,-99.9,-100.00,North,-999,-999.0,-999.0,-999,-99.99,,,0.08,,2013-09-08 01:42:00,
2013-09-07 20:23:00,54.0,-99.9,-100.00,North,-999,-999.0,-999.0,-999,0.01,,,0.08,,2013-09-08 02:23:00,
2013-09-07 20:32:00,54.0,-99.9,-100.00,North,-999,-999.0,-999.0,-999,0.01,,,0.08,,2013-09-08 02:32:00,
2013-09-07 20:43:00,54.0,-99.9,-100.00,North,-999,-999.0,-999.0,-999,0.01,,,0.08,,2013-09-08 02:43:00,
2013-09-07 21:23:00,52.0,-99.9,-100.00,North,-999,-999.0,-999.0,-999,0.00,,,0.07,,2013-09-08 03:23:00,
2013-09-07 21:34:00,52.0,-99.9,-100.00,North,-999,-999.0,-999.0,-999,0.00,,,0.07,,2013-09-08 03:34:00,
2013-09-07 21:44:00,52.0,-99.9,-100.00,North,-999,-999.0,-999.0,-999,0.00,,,0.07,,2013-09-08 03:44:00,
2013-09-07 22:24:00,48.0,-99.9,-100.00,North,-999,-999.0,-999.0,-999,0.00,,,0.07,,2013-09-08 04:24:00,
2013-09-07 22:34:00,48.0,-99.9,-100.00,North,-999,-999.0,-999.0,-999,0.00,,,0.07,,2013-09-08 04:34:00,
2013-09-07 22:44:00,48.0,-99.9,-100.00,North,-999,-999.0,-999.0,-999,0.00,,,0.07,,2013-09-08 04:44:00,
2013-09-07 23:23:00,46.0,-99.9,-100.00,North,-999,-999.0,-999.0,-999,0.00,,,0.07,,2013-09-08 05:23:00,
2013-09-07 23:34:00,46.0,-99.9,-100.00,North,-999,-999.0,-999.0,-999,0.00,,,0.07,,2013-09-08 05:34:00,
2013-09-07 23:43:00,46.0,-99.9,-100.00,North,-999,-999.0,-999.0,-999,0.00,,,0.07,,2013-09-08 05:43:00,